Location: ???????
(55.3754°N, 39.3545°E)
Time: 20:56:03
(UTC+00:00)

Cosmos 1513 Rocket - Pass Details

Date: 14 April 2026
Orbit: 938 x 1008 km, 82.9° (Epoch: 11 May)

Event Time Altitude Azimuth Distance (km) Brightness Sun altitude
Exits shadow 22:40:27 46° 198° (SSW) 1,320 4.7 -22.9°
Maximum altitude 22:42:31 83° 281° (W) 1,017 4.5 -22.8°
Drops below altitude 10° 22:48:55 10° 11° (N) 2,771 7.9 -22.5°
Sets 22:51:27 0° 12° (NNE) 3,715 8.9 -22.4°
